OBJECT A, 69674

Orbit data source: Space-Track

You're viewing an Uncataloged Satellite

Recently launched and/or uncataloged satellites may have evolving metadata. Metadata may include but not limited to: Owner, Maufacturer, Bus, Motor, and Mission.

OBJECT A, 69674 is a Chinese satellite in HEO that was launched on Tue, 23 Jun 2026 UTC via a CHANG ZHENG 7A launch vehicle from the Wenchang Satellite Launch Center (WSC). Unknown objects in Earth's orbit typically refer to objects detected orbiting the Earth but have not yet been identified or cataloged. These objects could be anything from previously untracked satellites, spent rocket stages, debris from satellite collisions, or even natural meteoroids temporarily captured by Earth's gravity.

Loading next visibility...
Identifier
69674, 2026-144A
Orbit
HEO
Country
Flag of CNCN / PRC
Related business
None
Manufacturer
Unknown
Mission
Operational spacecraft
Bus & Motor
Unknown
Mass
Unknown
Launch date (UTC)
2026-06-23 (2 days ago)
Launch vehicle
CHANG ZHENG 7A
Launch site
Wenchang Satellite Launch Center (WSC)
Object type
Unknown
Shape & HBR
Unknown
Radar Cross Section
RCS unknown

Expand to show TLE details & history
Last TLE update: 2 days ago

TLE from 2 days ago
0 OBJECT A
1 69674U 26144A   26174.32980920  .00009630 -16661-6  31526-3 0  9997
2 69674  19.5157 324.7456 7314561 179.7910 181.1077  2.27958502    21
Epoch: 2026-06-23T07:54Z
TLE epoch observation values (Epoch: 2026-06-23T07:54:55.514Z)
Latitude
0.00005°
Longitude
-65.49482°
Altitude
35,830.445 km
Speed
1.595 km/s
True Right ascension
21h 38m 57s
True Declination
0° 00' 00"
Sunlit
Object was in daylight at epoch
Visualization orbit readout
Latitude
Unknown
Longitude
Unknown
Altitude
Unknown
Speed
Unknown
Apparent Right ascension
Unknown
Apparent Declination
Unknown
Sunlit
N/A
Visualization observer readout
Local Sidereal Time
05:46:25
Azimuth
Unknown
Elevation
Unknown
Doppler factor
Unknown
Orbital elements
Apogee altitude
35,855.73 km
Perigee altitude
172.215 km
Semi-major axis
24,392.11 km
Eccentricity
0.73146
Inclination
19.5157°
RAAN
324.7456°
Arg. of periapsis
179.791°
True anomaly
180.25195°
Mean anomaly
181.1077°
Eccentric anomaly
180.63976°
Mean motion
0.56973 °/min
Orbital period
631.88 mins
BSTAR
0.00031526
Loading maneuver chart data...
Computing Atmospheric mass density...
Loading historical data...
Loading historical data...
Loading historical data...
Loading historical data...
Loading historical data...
Loading historical data...
Loading historical data...
Other satellites on launch #144 in the year 2026 (2026-06-23 UTC)

Documentation

Showing up to 5 results
|